Погода в Оленеке

Погода в Оленеке : погода сейчас, прогноз погоды и архив. Всё, что Вы хотите узнать о погоде в Оленеке!

Хотите узнать прогноз погоды в Оленеке? Тогда Вам сюда: Погода в Оленеке

Поиск расширенной информации на нашем сайте:

Другие новости

Новости СМИ2

Главная страница сайта

Новости сайта

03.07.2017

Напоминаем, что на нашем специализированном сайте Метеоцентр.Азия вы можете получить высокодетализированные автоматические прогнозы погоды по пунктам России, СНГ и мира в авиационном формате (включающие направление и скорость ветра, видимость, явления погоды, количество и форму облачности, нижнюю и верхнюю границу облачности).


Погода в Оленеке - сегодня

Время (UTC), дата Ветер
(°,м/с) 
Видим.   Явления Облачность Т
(°С)
Тd
(°С)
f(%) Тe
(°С)
Pmin
(гПа)
dP
(гПа)
Po
(мм)
O2
(г/м3)
Тmin Tmax R s Состояние
почвы
15 20.02.18 270 (З) н/о    н/о 
-31.1 -34.6 71 -35  1018.2  -1.8  740  339           
18 20.02.18 260 (З) н/о    н/о 
-30.2 -33.6 72 -36  1016  -2  739  337           
21 20.02.18 270 (З) н/о    н/о 
-29.9 -33.3 72 -34  1014  -2  737  336           
06 21.02.18 250 (З) 10 км  слаб. снег  10/5 300 м средняя 
[Sc|As op]
-24.7 -27.1 80 -28  1011  -0.3  736  328           
09 21.02.18 250 (З) 10 км  слаб. снег  10/3 300 м средняя, верхняя 
[Sc|Ac As|Cs]
-24.2 -26 85 -25  1011.3  0.3  736  327           
12 21.02.18 260 (З) н/о    н/о 
-23.6 -26.4 78 -24  1010.9  -0.3  736  326    -23.6       
15 21.02.18 280 (З) н/о    н/о 
-22.7 -25.5 78 -26  1010  -0.7  735  325           
18 21.02.18 290 (З) н/о    н/о 
-22.2 -24.9 79 -23  1009.8  -0.2  735  324           
21 21.02.18 280 (З) н/о    н/о 
-22.2 -24.9 79 -23  1009.8  735  324           
06 22.02.18 120 (ЮВ) 10 км  слаб. снег  10/0 средняя, верхняя 
[As op|Cs]
-25.5 -28 80 -29  1013.1  1.6  737  329           
09 22.02.18 090 (В) 10 км  слаб. снег  10/0 средняя, верхняя 
[As op|Cs]
-26 -28.4 80 -27  1015.6  2.3  739  331           
12 22.02.18 080 (В) н/о    н/о 
-27.5 -30.7 74 -31  1018.8  2.9  741  334    -22.8       
15 22.02.18 080 (В) н/о    н/о 
-29.3 -32.6 73 -33  1021.7  2.5  743  337           
18 22.02.18 050 (СВ) н/о    н/о 
-30.9 -34.3 72 -35  1024.7  2.7  745  340           
21 22.02.18 060 (СВ) н/о    н/о 
-32.3 -35.8 71 -38  1027.5  2.5  747  343           
00 23.02.18 060 (СВ) 20000 м    3/0 верхняя 
[Ci sp]
-33.2 -35.6 79 -39  1030.2  2.4  749  346  -33.3      45  равномерный
сухой снег
100% 
03 23.02.18 060 (СВ) 20000 м    4/0 верхняя 
[Ci sp]
-32.5 -34.8 80 -33  1032  1.9  750  345  -33.7         
06 23.02.18 060 (СВ) 20000 м    3/0 верхняя 
[Ci sp]
-30.8 -33.2 79 -35  1033.4  1.5  751  343           
09 23.02.18 050 (СВ) 20000 м    6/0 верхняя 
[Ci sp]
-31.2 -33.6 79 -32  1035.5  753  344           
12 23.02.18 050 (СВ) н/о    н/о 
-32.9 -36.5 70 -37  1036.9  1.2  754  347    -30.4       
15 23.02.18 020 (С) н/о    н/о 
-33.4 -37.1 69 -34  1037.8  0.8  754  348           
18 23.02.18 тихо ()   н/о    н/о 
-34.9 -38.5 70 -35  1038.5  0.5  755  351           
21 23.02.18 тихо ()   н/о    н/о 
-36.9 -40.7 68 -37  1039.3  0.5  755  354           
00 24.02.18 тихо ()   н/о    н/о 
-38.9 -42.8 67 -39  1039.9  0.3  755  357  -39.2         
03 24.02.18 290 (З) н/о    н/о 
-37.8 -41.8 66 -39  1039.6  0.1  755  355  -41.2         
Время (UTC), дата Ветер
(°,м/с) 
Видим.   Явления Облачность Т
(°С)
Тd
(°С)
f(%) Тe
(°С)
Pmin
(гПа)
dP
(гПа)
Po
(мм)
O2
(г/м3)
Тmin Tmax R s Состояние
почвы

Для получения пояснительной информации подведите курсор к названию столбца.

ПОГОДА в Оленеке - архив

Всё, что Вы хотите узнать о погоде в Оленеке - удобно и подробно!

Выберите нужную дату (начиная с 1 января 2015* года) и нажмите кнопку "Найти".
Будут отображены архивные сводки погоды по пункту Оленек, начиная с указанной даты.


Отображать данные в формате CSV (для использования в таблицах Excel)


Внимание! Наш архив погоды предназначен исключительно для личного некоммерческого использования в познавательных целях. Если Вам необходимы официальные справки о состоянии погоды (для производственных, юридических, коммерческих и т.п. целей), обращайтесь в органы Росгидромета.

*Примечание: данная дата относится к архиву по метеостанциям СССР (Россия, СНГ, Балтия).
Архив по метеостанциям Зарубежной Европы и Азии (кроме Китая) хранится 10 дней, по другим регионам земного шара (Китай, Африка, Америка, Австралия, Океания) - 1 день.

Оленек - район местоположения метеостанции


Название, широта, долгота, высота метеостанции:
Оленек 68.5°ш. 112.4°д. 220 м над ур. моря [Российская Федерация]

Дополнительная информация

В oтличие oт бoльшинства пoгoдных сайтoв мы публикуем пoдрoбную метеoинфoрмацию в детальнoм прoфессиoнальнoм фoрмате.

Характеристики температуры и влажнoсти вoздуха измеряются на высoте 2 м в тени вдали oт зданий и деревьев.
Скoрoсть ветра измеряется на высoте 10 м (на урoвне рoста челoвека скoрoсть ветра ниже в 1.5-2 раза). Если метеoстанция нахoдится в гoрoде или в лесу, тo скoрoсть ветра занижена на 2-4 м/с пo сравнению с oткрытым местoм. Скoрoсть ветра над акватoриями крупных рек и oзёр, а также на вершинах хoлмoв на 2-5 м/с выше, чем в oбычных услoвиях.
Атмoсфернoе давление в разных тoчках местнoсти мoжет значительнo oтличаться oт давления на метеoстанции, в зависимoсти oт услoвий рельефа (при пoдъёме на 10 м давление пoнижается примернo на 1 мм рт.ст.).